CW8739 Weather Reports


time (UTC)temp
F
wind
direction
speed
knots
gust
knots
rain 1hr
in
rain 24hr
in
rain mn
in
humidity
%
barometer
mb
20260505011831 52 242 7.0 17.4 0.00 1.65 0.31 67 1004.2
20260505010325 53 240 10.4 21.7 0.00 1.65 0.31 66 1004.1
20260505004824 53 258 9.6 17.4 0.00 1.65 0.31 65 1004.0
20260505003337 53 257 9.6 18.2 0.00 1.65 0.31 64 1003.9
20260505001853 53 262 10.4 20.9 0.00 1.65 0.31 65 1003.8
20260505000322 53 231 8.7 20.9 0.00 1.65 0.31 65 1003.5
20260504234841 53 267 5.2 14.8 0.00 1.65 0.31 64 1003.1
20260504233333 53 256 7.8 20.0 0.00 1.65 0.31 63 1002.8
20260504231851 54 245 13.0 22.6 0.00 1.65 0.31 59 1002.7
20260504230323 53 239 9.6 18.2 0.00 1.65 0.31 58 1002.5
20260504224838 52 277 6.1 16.5 0.00 1.93 0.31 59 1002.4
20260504223332 53 282 13.9 24.3 0.00 1.93 0.31 56 1002.3
20260504221822 56 248 16.5 40.0 0.00 1.93 0.31 44 1002.4
20260504220324 56 273 8.7 16.5 0.00 1.93 0.31 40 1002.0
20260504214834 58 303 3.5 21.7 0.00 2.13 0.31 41 1001.9
20260504213356 57 256 13.9 28.7 0.00 2.13 0.31 41 1002.0
20260504211825 57 263 19.1 30.4 0.00 2.13 0.31 42 1001.7
20260504210347 57 290 13.0 22.6 0.00 2.13 0.31 43 1001.6
20260504204836 58 213 11.3 24.3 0.00 2.44 0.31 43 1001.2
20260504203329 57 258 5.2 20.0 0.00 2.44 0.31 45 1001.2
20260504201819 57 269 13.9 30.4 0.00 2.44 0.31 44 1001.1
20260504200322 57 258 13.0 24.3 0.00 2.44 0.31 45 1000.9
20260504194832 57 273 11.3 21.7 0.00 2.68 0.31 49 1000.5
20260504193354 56 267 13.9 22.6 0.00 2.68 0.31 49 1000.3
20260504191823 56 238 8.7 26.1 0.00 2.68 0.31 52 1000.5
20260504190344 56 257 10.4 30.4 0.00 2.68 0.31 53 1000.2
20260504184829 56 278 13.9 26.9 0.00 2.76 0.31 54 1000.1
20260504183323 56 267 15.6 27.8 0.00 2.76 0.31 54 999.8
20260504181835 56 275 9.6 21.7 0.00 2.76 0.31 57 999.7
20260504174847 56 285 13.9 32.2 0.00 2.76 0.31 55 999.4
20260504173321 55 277 16.5 33.0 0.00 2.76 0.31 57 999.1
20260504171831 56 267 11.3 26.9 0.00 2.76 0.31 61 999.3
20260504170352 54 280 10.4 20.0 0.00 2.76 0.31 67 999.1
20260504160328 51 256 11.3 33.0 0.00 2.76 0.31 75 998.4
20260504150328 50 261 15.6 35.6 0.00 2.76 0.31 77 997.7
20260504070333 38 285 13.9 31.3 0.16 1.89 0.13 95 981.2
20260504050323 39 282 9.6 20.9 0.12 1.54 0.06 96 977.6
20260504044830 39 277 8.7 17.4 0.08 1.46 0.05 95 977.3
20260504043330 40 258 8.7 15.6 0.08 1.42 0.04 96 976.8
20260504041836 41 285 3.5 10.4 0.12 1.42 0.04 96 976.4
20260504040331 41 296 3.5 8.7 0.20 1.42 0.04 96 976.0
20260504034821 40 296 3.5 9.6 0.20 1.38 0.03 96 975.7
20260504033335 40 327 1.7 8.7 0.20 1.34 0.02 96 975.7
20260504031826 40 344 3.5 7.8 0.12 1.26 0.01 95 975.5
20260504030347 40 13 4.3 9.6 0.12 1.22 0.00 95 975.7
20260504024836 40 34 4.3 10.4 0.08 1.18 0.24 95 975.8
20260504023330 40 40 4.3 8.7 0.04 1.14 0.23 95 976.0
20260504021820 41 71 6.1 11.3 0.04 1.14 0.23 95 976.1
20260504020321 41 66 5.2 9.6 0.00 1.10 0.22 95 976.5
20260504014831 41 80 7.0 11.3 0.00 1.10 0.22 95 976.9
20260504013353 41 69 9.6 14.8 0.00 1.10 0.22 95 977.2